TimeCST,TemperatureF,Dew PointF,Humidity,Sea Level PressureIn,VisibilityMPH,Wind Direction,Wind SpeedMPH,Gust SpeedMPH,PrecipitationIn,Events,Conditions,WindDirDegrees,DateUTC
12:15 AM,50.0,48.2,94,30.03,0.5,North,4.6,-,N/A,Fog,Fog,360,2012-11-06 06:15:00
12:35 AM,50.0,48.2,94,30.04,0.5,NNW,3.5,-,N/A,Fog,Fog,330,2012-11-06 06:35:00
12:55 AM,50.0,48.2,94,30.04,0.2,WNW,3.5,-,N/A,Fog,Fog,300,2012-11-06 06:55:00
1:15 AM,50.0,48.2,94,30.04,0.2,NW,4.6,-,N/A,Fog,Fog,320,2012-11-06 07:15:00
1:35 AM,50.0,48.2,94,30.04,0.5,NNW,4.6,-,N/A,Fog,Fog,340,2012-11-06 07:35:00
1:55 AM,50.0,48.2,94,30.04,0.5,North,3.5,-,N/A,Fog,Fog,350,2012-11-06 07:55:00
2:15 AM,50.0,48.2,94,30.04,2.0,NNW,4.6,-,N/A,,Overcast,340,2012-11-06 08:15:00
2:35 AM,50.0,48.2,94,30.05,4.0,NNW,3.5,-,N/A,,Overcast,330,2012-11-06 08:35:00
2:55 AM,50.0,48.2,94,30.04,4.0,Calm,Calm,-,N/A,,Overcast,0,2012-11-06 08:55:00
3:15 AM,50.0,48.2,94,30.04,3.0,NNW,3.5,-,N/A,,Overcast,340,2012-11-06 09:15:00
3:35 AM,50.0,48.2,94,30.05,3.0,Calm,Calm,-,N/A,,Overcast,0,2012-11-06 09:35:00
3:55 AM,50.0,48.2,94,30.05,3.0,NNW,3.5,-,N/A,,Overcast,330,2012-11-06 09:55:00
4:15 AM,50.0,48.2,94,30.06,3.0,Calm,Calm,-,N/A,,Overcast,0,2012-11-06 10:15:00
4:35 AM,50.0,48.2,94,30.05,3.0,Calm,Calm,-,N/A,,Mostly Cloudy,0,2012-11-06 10:35:00
4:55 AM,48.2,46.4,93,30.05,3.0,Calm,Calm,-,N/A,,Mostly Cloudy,0,2012-11-06 10:55:00
5:15 AM,48.2,46.4,93,30.06,2.5,Calm,Calm,-,N/A,,Mostly Cloudy,0,2012-11-06 11:15:00
5:35 AM,48.2,46.4,93,30.06,3.0,WNW,3.5,-,N/A,,Scattered Clouds,300,2012-11-06 11:35:00
5:55 AM,46.4,44.6,93,30.06,4.0,Calm,Calm,-,N/A,,Partly Cloudy,0,2012-11-06 11:55:00
6:15 AM,46.4,44.6,93,30.08,4.0,WNW,3.5,-,N/A,,Clear,300,2012-11-06 12:15:00
6:35 AM,46.4,44.6,93,30.09,5.0,WNW,3.5,-,N/A,,Mostly Cloudy,300,2012-11-06 12:35:00
6:55 AM,46.4,44.6,93,30.10,4.0,Calm,Calm,-,N/A,,Overcast,0,2012-11-06 12:55:00
7:15 AM,46.4,44.6,93,30.10,5.0,Calm,Calm,-,N/A,,Overcast,0,2012-11-06 13:15:00
7:35 AM,48.2,44.6,87,30.11,6.0,Calm,Calm,-,N/A,,Mostly Cloudy,0,2012-11-06 13:35:00
7:55 AM,48.2,44.6,87,30.12,6.0,Calm,Calm,-,N/A,,Mostly Cloudy,0,2012-11-06 13:55:00
8:15 AM,48.2,44.6,87,30.12,7.0,Calm,Calm,-,N/A,,Mostly Cloudy,0,2012-11-06 14:15:00
8:35 AM,51.8,46.4,82,30.12,8.0,North,3.5,-,N/A,,Partly Cloudy,350,2012-11-06 14:35:00
8:55 AM,53.6,46.4,77,30.12,9.0,North,3.5,-,N/A,,Clear,350,2012-11-06 14:55:00
9:15 AM,55.4,44.6,67,30.13,9.0,North,6.9,-,N/A,,Clear,360,2012-11-06 15:15:00
9:35 AM,57.2,44.6,63,30.13,9.0,North,4.6,-,N/A,,Clear,10,2012-11-06 15:35:00
9:55 AM,57.2,42.8,59,30.14,9.0,North,5.8,-,N/A,,Scattered Clouds,10,2012-11-06 15:55:00
10:15 AM,57.2,42.8,59,30.13,10.0,NNE,3.5,-,N/A,,Mostly Cloudy,20,2012-11-06 16:15:00
10:35 AM,57.2,41.0,55,30.14,10.0,NNW,4.6,-,N/A,,Scattered Clouds,330,2012-11-06 16:35:00
10:55 AM,59.0,42.8,55,30.13,10.0,West,3.5,-,N/A,,Mostly Cloudy,280,2012-11-06 16:55:00
11:15 AM,59.0,41.0,51,30.12,10.0,NW,4.6,-,N/A,,Overcast,310,2012-11-06 17:15:00
11:35 AM,62.6,42.8,48,30.11,10.0,West,5.8,-,N/A,,Mostly Cloudy,260,2012-11-06 17:35:00
11:55 AM,62.6,42.8,48,30.09,10.0,West,5.8,-,N/A,,Mostly Cloudy,260,2012-11-06 17:55:00
12:15 PM,62.6,41.0,45,30.08,10.0,West,4.6,-,N/A,,Mostly Cloudy,270,2012-11-06 18:15:00
12:35 PM,62.6,41.0,45,30.08,10.0,West,8.1,-,N/A,,Mostly Cloudy,260,2012-11-06 18:35:00
12:55 PM,64.4,41.0,42,30.06,10.0,West,8.1,-,N/A,,Partly Cloudy,280,2012-11-06 18:55:00
1:15 PM,64.4,41.0,42,30.06,10.0,West,5.8,-,N/A,,Partly Cloudy,260,2012-11-06 19:15:00
1:35 PM,62.6,41.0,45,30.05,10.0,WSW,5.8,-,N/A,,Partly Cloudy,250,2012-11-06 19:35:00
1:55 PM,62.6,41.0,45,30.04,10.0,WNW,5.8,-,N/A,,Clear,300,2012-11-06 19:55:00
2:15 PM,64.4,41.0,42,30.03,10.0,WNW,8.1,-,N/A,,Clear,300,2012-11-06 20:15:00
2:35 PM,64.4,41.0,42,30.02,10.0,WNW,5.8,-,N/A,,Clear,300,2012-11-06 20:35:00
2:55 PM,64.4,41.0,42,30.02,10.0,WSW,5.8,-,N/A,,Clear,240,2012-11-06 20:55:00
3:15 PM,64.4,39.2,40,30.02,10.0,West,8.1,-,N/A,,Clear,270,2012-11-06 21:15:00
3:35 PM,64.4,41.0,42,30.02,10.0,NW,6.9,-,N/A,,Clear,320,2012-11-06 21:35:00
4:15 PM,62.6,41.0,45,30.03,10.0,WNW,4.6,-,N/A,,Clear,290,2012-11-06 22:15:00
4:35 PM,62.6,41.0,45,30.02,10.0,Calm,Calm,-,N/A,,Clear,0,2012-11-06 22:35:00
4:55 PM,60.8,41.0,48,30.02,10.0,Calm,Calm,-,N/A,,Clear,0,2012-11-06 22:55:00
5:15 PM,57.2,44.6,63,30.02,10.0,Calm,Calm,-,N/A,,Clear,0,2012-11-06 23:15:00
5:35 PM,53.6,44.6,72,30.03,10.0,Calm,Calm,-,N/A,,Clear,0,2012-11-06 23:35:00
5:55 PM,50.0,44.6,82,30.03,10.0,Calm,Calm,-,N/A,,Clear,0,2012-11-06 23:55:00
6:15 PM,50.0,44.6,82,30.04,10.0,Calm,Calm,-,N/A,,Clear,0,2012-11-07 00:15:00
6:35 PM,48.2,44.6,87,30.04,10.0,Calm,Calm,-,N/A,,Clear,0,2012-11-07 00:35:00
6:55 PM,48.2,46.4,93,30.04,10.0,Calm,Calm,-,N/A,,Clear,0,2012-11-07 00:55:00
7:15 PM,48.2,44.6,87,30.05,10.0,Calm,Calm,-,N/A,,Clear,0,2012-11-07 01:15:00
7:35 PM,46.4,44.6,93,30.05,10.0,Calm,Calm,-,N/A,,Clear,0,2012-11-07 01:35:00
7:55 PM,46.4,44.6,93,30.05,10.0,Calm,Calm,-,N/A,,Clear,0,2012-11-07 01:55:00
8:15 PM,46.4,44.6,93,30.06,10.0,Calm,Calm,-,N/A,,Clear,0,2012-11-07 02:15:00
8:35 PM,44.6,42.8,93,30.06,10.0,Calm,Calm,-,N/A,,Clear,0,2012-11-07 02:35:00
8:55 PM,44.6,42.8,93,30.07,10.0,Calm,Calm,-,N/A,,Clear,0,2012-11-07 02:55:00
9:15 PM,44.6,42.8,93,30.08,9.0,Calm,Calm,-,N/A,,Clear,0,2012-11-07 03:15:00
9:35 PM,44.6,41.0,87,30.07,7.0,Calm,Calm,-,N/A,,Clear,0,2012-11-07 03:35:00
9:55 PM,42.8,41.0,93,30.08,4.0,Calm,Calm,-,N/A,,Clear,0,2012-11-07 03:55:00
10:15 PM,42.8,41.0,93,30.08,7.0,Calm,Calm,-,N/A,,Clear,0,2012-11-07 04:15:00
10:35 PM,42.8,41.0,93,30.08,8.0,Calm,Calm,-,N/A,,Clear,0,2012-11-07 04:35:00
10:55 PM,42.8,41.0,93,30.07,1.2,Calm,Calm,-,N/A,,Clear,0,2012-11-07 04:55:00
11:15 PM,42.8,41.0,93,30.07,7.0,Calm,Calm,-,N/A,,Clear,0,2012-11-07 05:15:00
11:35 PM,41.0,39.2,93,30.07,5.0,Calm,Calm,-,N/A,,Clear,0,2012-11-07 05:35:00
11:55 PM,41.0,39.2,93,30.08,1.8,Calm,Calm,-,N/A,,Clear,0,2012-11-07 05:55:00